830  
ASUS43 KJKL 202310  
RWRJKL  
 
EAST KENTUCKY HOURLY WEATHER ROUNDUP  
NATIONAL WEATHER SERVICE JACKSON KY  
600 PM EST WED FEB 20 2019  
 
NOTE: "FAIR" INDICATES FEW OR NO CLOUDS BELOW 12,000 FEET WITH  
NO SIGNIFICANT WEATHER AND/OR S TO VISIBILITY
.  
 
* THESE REPORTS ARE NOT UNDER NWS QUALITY CONTROL AND MAY NOT  
REPORT WEATHER SUCH AS PRECIPITATION AND FOG.
 
 
KYZ079-080-083-085-087-088-110-112-115-119-120-210000   
..EASTERN KENTUCKY
 
 
 
CITY SKY/WX TMP DP RH WIND PRES REMARKS
 
JACKSON CLOUDY 56 54 93 MISG 29.85R  
LONDON CLOUDY 54 32 43 S16G25 29.87F  
SOMERSET* CLOUDY 54 52 94 S9G16 29.90R  
MONTICELLO* CLOUDY 56 52 86 VRB7 29.89R  
WILLIAMSBURG* CLOUDY 50 50 100 SE13 29.89F  
MIDDLESBORO* LGT RAIN 50 50 100 W5 29.96S  
HARLAN APT* CLOUDY 52 49 89 SE6G16 29.94S  
PIKE CO APT* CLOUDY 54 54 100 S8G21 29.88F  
BIG SANDY APT* CLOUDY 55 55 99 S12G18 29.86S  
MOREHEAD APT* CLOUDY 52 50 93 S6 29.83R  
ASHLAND* LGT RAIN 46 46 100 CALM 29.82S FOG  

 
 
KYZ035-036-041-042-044-050-067-078-099-210000   
..CENTRAL KENTUCKY
 
 
 
CITY SKY/WX TMP DP RH WIND PRES REMARKS
 
MT STERLING* LGT RAIN 55 54 94 SW12G18 29.84R  
FLEMING/MASON* HVY RAIN 50 50 100 SW8 29.83R  
DANVILLE* RAIN 54 52 94 SW12G23 29.85R  
LEXINGTON RAIN 56 53 90 S13 29.83R FOG  
FRANKFORT CLOUDY 57 54 89 SW12 29.81R FOG  
LOUISVILLE DRIZZLE 54 51 90 SW7 29.83R FOG  
LEBANON* CLOUDY 55 55 100 S17 29.85R  
GLASGOW* CLOUDY 53 52 96 SW8G16 29.88R  
BOWLING GREEN CLOUDY 55 52 89 SW9 29.87R  

 
 
KYZ091>093-OHZ055-061-077-WVZ005-015-034-035-042-210000   
..SOUTHERN OHIO/WEST VIRGINIA
 
 
 
CITY SKY/WX TMP DP RH WIND PRES REMARKS
 
COVINGTON LGT RAIN 48 47 96 SW6 29.79S VSB 1  
COLUMBUS HVY RAIN 42 41 96 SE7 29.79S FOG  
DAYTON LGT RAIN 42 40 92 S10 29.77S VSB 1/8  
WILMINGTON LGT RAIN 45 44 97 SW8 29.78S FOG  
HUNTINGTON LGT RAIN 56 53 90 S9G17 29.82F FOG  
CHARLESTON CLOUDY 54 50 86 S12 29.86F  
PINEVILLE* DRIZZLE 46 45 95 MISG 30.01S  
BECKLEY LGT RAIN 37 36 96 SE17G28 29.99R WCI 27  
BLUEFIELD CLOUDY 39 37 92 S14 30.01F WCI 31  
LOGAN CO APT* CLOUDY 52 52 100 S16G30 29.88F  

 
 
VAZ002-007-008-TNZ017-027-036-066-071-210000   
..SOUTHWEST VIRGINIA/EAST TENNESSEE
 
 
 
CITY SKY/WX TMP DP RH WIND PRES REMARKS
 
WISE* CLOUDY 48 48 100 S14G22 29.95F  
JONESVILLE* CLOUDY 52 52 100 CALM 29.97F  
ABINGDON* MOCLDY 40 40 98 E14 29.99F WCI 32  
BRISTOL MOCLDY 49 49 100 NE5 29.94F  
MORRISTOWN* MOCLDY 50 50 100 E6 29.93F  
SEVIERVILLE* CLOUDY 50 50 100 W5 29.96R  
KNOXVILLE RAIN 48 47 96 SE3 29.96S FOG  
LAFOLLETTE* CLOUDY 48 48 100 CALM 29.98F  
OAK RIDGE LGT RAIN 48 48 100 CALM 29.97F FOG  
CROSSVILLE CLOUDY 50 48 93 VRB7 29.93S  
NASHVILLE CLOUDY 55 52 89 S7 29.90R  

 
   
..KEY TO REMARKS
 
 
VSB - VISIBILITY IN MILES  
WCI - WIND CHILL INDEX  
HX - HEAT INDEX  
 

 
 
 
CLICK HERE TO GO TO PREVIOUS BULLETINS.

The Nexlab KY Page Main Text Page